COSMOS 2251 DEB

Satellite information

Favourite Embed

Satellite Type and Status

DEBRISIN ORBIT

Key statistics

Satellite COSMOS 2251 DEB at a glance.

Uptime

11870

Days in orbit

Revolutions

≈ 14.8

Per day

Orbit

LEO

Low Earth Orbit

Inclination

74.0

Latest

Satellite identification and parameters

Extended collection of information and parameters for COSMOS 2251 DEB.

Object identification

Identified? True

Debris? True

Object name: COSMOS 2251 DEB

International designator: 1993-036BX

Object number (NORAD): 33830

Object ID (CCSDS): 33830

Country: COMMONWEALTH OF INDEPENDENT STATES (CIS)

Current information (Y/N): Y

RCS size: MEDIUM

Orbital parameters

Period: 97.5 minutes

Inclination: 74.0323 deg

SMA: 7017.194 km

Apoapsis: 668.824 km

Periapsis: 609.294 km

RAAN: 227.6375 deg

Eccentricy: 0.00424172

Argument of periapsis: 347.4452 deg

Mean anomaly: 131.9926 deg

Mean motion: 14.76921967 rev/day

Mean motion (dot): 0.00006667 rev/day2

B* drag term: 0.00093757354 1/REarth

Two-line elements (TLE)

Creation date: Dec. 14, 2025, 6:24 p.m.

Reference frame: TEME

Reference center: EARTH

Epoch: Dec. 14, 2025, 3:09 a.m. UTC

TLE line 0: 0 COSMOS 2251 DEB

TLE line 1: 1 33830U 93036BX 25348.13142609 .00006667 00000-0 93757-3 0 9995

TLE line 2: 2 33830 74.0323 227.6375 0042417 347.4452 131.9926 14.76921967894922

Live tracking on map

Real-time ground track for satellite COSMOS 2251 DEB.

In-orbit conjunctions

A list of the most updated potential collisions computed for object COSMOS 2251 DEB.

Target Orbit TCA Probability of collision Miss distance Type
OBJECT A SSO 2024-11-27 04:19:33 0.0004033911 827.0 (m) UNKNOWN
DELTA 2 R/B SSO 2024-09-02 02:21:29 0.0008493255 378.0 (m) ROCKET BODY

Associated space launch

Military communications satellite. Destroyed in a collision with Iridium 33.

COSMOS 2251 DEB was lifted into orbit during the mission ‘Kosmos-3M | Strela-2M 51’, on board a Kosmos-3M space rocket.

The launch took place on June 16, 1993, 4:17 a.m. from 132/1 (132L).

For more information about the launch, click the button.

Launch to space Kosmos-3M | Strela-2M 51
Kosmos-3M | Strela-2M 51

Agency: N/A

Status: Launch Successful

Launch date: June 16, 1993, 4:17 a.m. UTC

Rocket: Kosmos-3M

Launch pad: 132/1 (132L)

Location: Plesetsk Cosmodrome, Russian Federation

...

Latest news about this satellite

There are no fresh news available about this satellite. Check back as we update our databases every day.


Newsletter sign-up

Weekly statistics, charts and insights to help you stay on top of the space industry.